ONEWEB-0690, 61598

Orbit data source: Space-Track

ONEWEB-0690, 61598 is a payload satellite owned by Eut. One Web (UK) in LEO that was launched on Sun, 20 Oct 2024 UTC via an FALCON 9 launch vehicle from the Air Force Western Test Range (AFWTR). Payload-class satellites include a variety of spacecraft equipped with specific instruments for various scientific and technological missions. These include communications satellites like Starlink; space stations such as the ISS; scientific satellites like the Hubble; Earth observation satellites from companies like Planet Labs, Umbra, and HawkEye 360; GPS; miniature CubeSats for education and research; and military/defense satellites.

Loading next visibility...
Identifier
61598, 2024-188E
Orbit
LEO
Last TLE update
13 hours ago
Origin
Manufacturer
One Web
Mission
Operational Commercial Communications
Bus & Motor
ARROW, Unknown motor
Mass
148 kg wet, ~140 kg dry
Launch date (UTC)
2024-10-20 (8 months ago)
Launch vehicle
FALCON 9
Launch site
Air Force Western Test Range (AFWTR)
Object type
Payload
Rocket body
Debris
Shape & HBR
Trap Box + 2 Pan, 5 m
Radar Cross Section
2.032 m², Large (>1 m²)

Expand to show TLE details & history

TLE from 13 hours ago
0 ONEWEB-0690
1 61598U 24188E   25181.85431902 -.00000426  00000-0 -12385-2 0  9996
2 61598  87.8853  91.0595 0002231  96.2113 263.9269 13.11416812 38588
Epoch: 2025-06-30T20:30Z
TLE epoch observation values (Epoch: 2025-06-30T20:30:13.163Z)
Latitude
-0.00003°
Longitude
-135.6535°
Altitude
1,220.752 km
Speed
7.244 km/s
True Right ascension
06h 04m 14s
True Declination
0° 00' 00"
Sunlit
Object was in daylight at epoch
Visualization orbit readout
Latitude
7.09997°
Longitude
-135.49798°
Altitude
1,219.864 km
Speed
7.245 km/s
Apparent Right ascension
07h 12m 48s
Apparent Declination
-15° 08' 58"
Sunlit
Object is in daylight
Visualization observer readout
Local Sidereal Time
20:59:43
Azimuth
50.902° ENE
Elevation
-55.989°
Doppler factor
1
Orbital elements
Apogee altitude
1,216.495 km
Perigee altitude
1,213.107 km
Semi-major axis
7,592.938 km
Eccentricity
0.00022
Inclination
87.8853°
RAAN
91.0595°
Arg. of periapsis
96.2113°
True anomaly
Unknown
Mean anomaly
263.9269°
Eccentric anomaly
Unknown
Mean motion
3.28041 °/min
Orbital period
109.74 mins
BSTAR
-0.0012385
Loading maneuver chart data...
Loading SW <> Apogee altitude chart data...
Loading historical data...
Loading historical data...
Loading historical data...
Loading historical data...
Loading historical data...
Loading historical data...
Loading historical data...

ONEWEB-0690 Visibility forecast

Observer location: undefined°, undefined°

Span
Click to sort rows by Start time (UTC) header in descending order
Start Az.
Max El. time (UTC)
Max El. Az.
Max El.
End time (UTC)
End Az.
8 mins2025-07-01 16:47:26.794Z110.848° ESE2025-07-01 16:51:26.794Z76.605° E17.223°2025-07-01 16:55:26.794Z40.125° NE
13 mins2025-07-01 18:34:26.794Z185.188° SSW2025-07-01 18:40:26.794Z240.898° WSW44.18°2025-07-01 18:47:26.794Z357.434° N
4 mins2025-07-01 20:30:26.794Z278.082° WNW2025-07-01 20:31:26.794Z286.454° WNW11.895°2025-07-01 20:34:26.794Z311.197° NW
5 mins2025-07-02 04:17:26.794Z52.66° ENE2025-07-02 04:19:26.794Z69.991° E13.489°2025-07-02 04:22:26.794Z95.507° ESE
13 mins2025-07-02 06:04:26.794Z0.912° NNE2025-07-02 06:10:26.794Z70.264° E44.896°2025-07-02 06:17:26.794Z179.166° S
7 mins2025-07-02 07:56:26.794Z314.351° NW2025-07-02 07:59:26.794Z287.582° WNW15.578°2025-07-02 08:03:26.794Z253.766° W
|